Погода в Заречном

Россия / Липецкая область     52°13′46″N   38°04′18″E
темп.,
°C
ветер,
м/с
пор.,
м/с
влажн.,
%
обл.,
%
осадки,
мм/ч
давл.,
гПа
погр.,
м
17 апреля, сб
сб1700:00+8ююв22700 0.0 101913
03:00+7всв11729 0.0 101810
06:00+7юз3474100 0.0 1018107
09:00+6з3491100 1.8 1018318
12:00+7сз2285100 4.5 1018581
15:00+8зюз2278100 4.6 1018556
18:00+9юз2472100 0.0 1017615
21:00+7юв118358 0.1 101810
18 апреля, вс
вс1800:00+5ююз23885 0.0 101840
03:00+4ююз348984 0.0 101861
06:00+5ююз2388100 0.0 101898
09:00+7ююз237598 0.2 1019482
12:00+10ю3361100 0.4 10181111
15:00+11ю3450100 1.2 10181491
18:00+9ююз4568100 0.2 1018469
21:00+7ю248499 0.3 1019220
19 апреля, пн
пн1900:00+6ююз2391100 2.1 1019178
03:00+7св3393100 4.1 1018136
06:00+6вюв5991100 6.4 1018457
09:00+8вюв688272 6.5 1019606
12:00+11в5568100 0.1 1018930
15:00+12в4562100 1.0 10171043
18:00+11в5875100 1.5 1018747
21:00+6всв71193100 6.2 1019459
20 апреля, вт
вт2000:00+5в61089100 3.3 1019605
03:00+5всв61091100 3.5 1018527
06:00+5всв61095100 0.0 1017524
09:00+6всв71285100 0.0 1015769
12:00+7всв8148799 0.0 1013731
15:00+5всв101793100 2.8 1008792
18:00+6всв101894100 16.1 10021118
21:00+9вюв91894100 27.3 997840
21 апреля, ср
ср2100:00+10ююв8169047 3.5 998604
03:00+9ююв81489100 6.9 9981056
06:00+8ююв81492100 0.4 9981023
09:00+3ююз91396100 1.5 1002907
12:00+4юз101596100 0.2 10061053
15:00+6юз91584100 0.3 10101234
18:00+7юз61180100 0.0 1014984
21:00+6ююз51184100 0.1 1017470